Weather History for KDIK - January, 2014

Change the Weather History Date:

Thursday, January 16, 2014

  Actual Average Record
Temperature  
Mean Temperature 24 °F 16 °F  
Max Temperature 32 °F 26 °F 52 °F (1974)
Min Temperature 16 °F 6 °F -27 °F (1954)
Degree Days  
Heating Degree Days 41 49  
Month to date heating degree days 783 784  
Since 1 July heating degree days 4438 4321  
Cooling Degree Days 0 0  
Month to date cooling degree days 0 0  
Year to date cooling degree days 0 0  
Moisture  
Dew Point 15 °F    
Average Humidity 72    
Maximum Humidity 84    
Minimum Humidity 59    
Precipitation  
Precipitation T in 0.01 in 0.16 in (1990)
Month to date precipitation 0.02 0.17  
Year to date precipitation 0.02 0.17  
Sea Level Pressure  
Sea Level Pressure 30.14 in    
Wind  
Wind Speed 23 mph (NW)    
Max Wind Speed 43 mph    
Max Gust Speed 57 mph    
Visibility 10 miles    
Events      
T = Trace of Precipitation, MM = Missing Value Source: NWS Daily Summary

Daily Weather History Graph

Daily Weather History Graph

Search for Another Location

Airport or City:

Trip Planner

Search our weather history database for the weather conditions in past years. The results will help you decide how hot, cold, wet, or windy it might be!

Date:

Astronomy

Jan. 16, 2014 Rise Set
Actual Time 7:31 AM MST 4:31 PM MST
Civil Twilight 6:57 AM MST 5:05 PM MST
Nautical Twilight 6:19 AM MST 5:42 PM MST
Astronomical Twilight 5:43 AM MST 6:19 PM MST
Moon 5:31 PM MST (1/16) 7:20 AM MST (1/16)
Length of Visible Light 10h 08m
Length of Day
9h 00m
Full, 100% of the Moon is Illuminated
Jan 16
Full
Jan 23
Last Quarter
Jan 30
New
Feb 6
First Quarter
Feb 14
Full

Hourly Weather History & Observations

Time (MST) Temp. Windchill Dew Point Humidity Pressure Visibility Wind Dir Wind Speed Gust Speed Precip Events Conditions
12:56 AM 30.9 °F 15.7 °F 21.0 °F 67% 29.85 in 10.0 mi WNW 32.2 mph 43.7 mph N/A   Clear
1:56 AM 30.0 °F 14.9 °F 19.9 °F 66% 29.88 in 10.0 mi WNW 29.9 mph 41.4 mph N/A   Clear
2:56 AM 28.9 °F 13.0 °F 19.9 °F 69% 29.88 in 10.0 mi WNW 32.2 mph 38.0 mph N/A   Clear
3:56 AM 28.0 °F 11.5 °F 19.0 °F 69% 29.88 in 10.0 mi WNW 33.4 mph 41.4 mph N/A   Clear
4:56 AM 28.0 °F 11.3 °F 19.0 °F 69% 29.91 in 10.0 mi WNW 34.5 mph 42.6 mph N/A   Clear
5:56 AM 28.0 °F 11.3 °F 19.0 °F 69% 29.93 in 10.0 mi NW 34.5 mph 48.3 mph N/A   Overcast
6:56 AM 28.9 °F 12.8 °F 19.0 °F 67% 29.98 in 10.0 mi NW 33.4 mph 50.6 mph 0.00 in   Overcast
7:56 AM 25.0 °F 6.2 °F 16.0 °F 69% 30.06 in 10.0 mi NNW 39.1 mph 57.5 mph 0.00 in   Mostly Cloudy
8:56 AM 21.9 °F 2.9 °F 14.0 °F 72% 30.13 in 10.0 mi NW 34.5 mph 42.6 mph N/A   Clear
9:56 AM 21.0 °F 3.6 °F 12.0 °F 68% 30.19 in 10.0 mi NW 26.5 mph 40.3 mph N/A   Clear
10:56 AM 21.0 °F 3.3 °F 10.9 °F 65% 30.22 in 10.0 mi NW 27.6 mph 38.0 mph N/A   Clear
11:56 AM 21.9 °F 5.1 °F 10.0 °F 60% 30.24 in 10.0 mi NW 25.3 mph 32.2 mph N/A   Clear
12:56 PM 21.9 °F 4.5 °F 10.0 °F 60% 30.24 in 10.0 mi NW 27.6 mph 36.8 mph N/A   Clear
1:56 PM 23.0 °F 7.2 °F 10.9 °F 60% 30.25 in 10.0 mi NW 23.0 mph 29.9 mph N/A   Clear
2:56 PM 24.1 °F 9.4 °F 14.0 °F 65% 30.27 in 10.0 mi NW 20.7 mph - N/A   Clear
3:56 PM 21.9 °F 7.8 °F 14.0 °F 72% 30.29 in 10.0 mi NW 17.3 mph - N/A   Clear
4:41 PM 21.0 °F 11.4 °F 15.1 °F 78% 30.19 in 10.0 mi NW 8.1 mph - N/A   Mostly Cloudy
4:56 PM 19.9 °F 11.1 °F 14.0 °F 78% 30.30 in 10.0 mi NW 6.9 mph - N/A   Mostly Cloudy
5:23 PM 19.0 °F 8.2 °F 14.0 °F 81% 30.19 in 10.0 mi WNW 9.2 mph - N/A   Scattered Clouds
5:56 PM 17.1 °F 6.6 °F 12.9 °F 84% 30.30 in 10.0 mi NW 8.1 mph - N/A   Clear
6:56 PM 19.0 °F 6.8 °F 14.0 °F 81% 30.28 in 10.0 mi WNW 11.5 mph - N/A   Clear
7:56 PM 19.9 °F 6.2 °F 15.1 °F 81% 30.27 in 10.0 mi WNW 15.0 mph - N/A   Clear
8:56 PM 19.0 °F 5.6 °F 14.0 °F 81% 30.26 in 10.0 mi West 13.8 mph - N/A   Clear
9:56 PM 17.1 °F 6.6 °F 12.9 °F 84% 30.24 in 10.0 mi West 8.1 mph - N/A   Clear
10:56 PM 18.0 °F 5.4 °F 14.0 °F 84% 30.22 in 10.0 mi West 11.5 mph - N/A   Clear
11:56 PM 18.0 °F 6.1 °F 14.0 °F 84% 30.21 in 10.0 mi West 10.4 mph - N/A   Clear